Retour au catalogue

BREEZE-M DEB

LostHEO
NORAD 38630·DEBRIS·🇷🇺 Russia

Lancé Mar 14, 2008 depuis Baikonur Cosmodrome

Loading…

Prochains Passages (prochaines 24 heures)

TLE

PériméSource: Space-Track

Époque: Sep 28, 2015, 04:15 UTC

1 38630U 08011CD  15271.17731201 -.00001412  00000-0 -75793-2 0  9991
2 38630  49.2813 256.5100 6504270 137.2706 348.5675  3.11052931 42366

Suivez BREEZE-M DEB en temps réel avec AllMySat

Download on the App Store